FW7873 Weather Reports


Display with metric or nautical units.
time (UTC)temp
F
wind
direction
speed
MPH
gust
MPH
rain 1hr
in
rain 24hr
in
rain mn
in
humidity
%
barometer
mb
20260901040105 73 0 0.0 1.0 0.00 0.12 0.00 92 1015.7
20260901034607 73 0 0.0 1.0 0.00 0.12 0.12 92 1015.5
20260901033120 72 0 0.0 2.0 0.00 0.12 0.12 92 1015.8
20260901031608 72 0 0.0 4.0 0.00 0.12 0.12 93 1015.9
20260901030108 71 207 0.0 2.0 0.00 0.12 0.12 93 1015.9
20260901024604 71 0 0.0 1.0 0.00 0.12 0.12 92 1015.9
20260901023108 71 0 0.0 1.0 0.00 0.12 0.12 92 1016.1
20260901021606 71 0 0.0 1.0 0.00 0.12 0.12 91 1015.8
20260901014608 71 0 0.0 0.0 0.00 0.12 0.12 90 1015.9
20260901013114 71 0 0.0 1.0 0.00 0.12 0.12 90 1015.9
20260901011621 71 0 0.0 1.0 0.00 0.12 0.12 90 1015.6
20260901010117 71 0 0.0 1.0 0.00 0.12 0.12 91 1015.5
20260901004607 71 74 0.0 2.0 0.00 0.12 0.12 91 1015.3
20260901003101 70 0 0.0 2.0 0.00 0.12 0.12 92 1015.2
20260901001604 70 0 0.0 1.0 0.00 0.12 0.12 92 1015.1
20260901000104 71 0 0.0 1.0 0.00 0.12 0.12 91 1015.0
20260831234608 71 0 0.0 2.0 0.00 0.12 0.12 92 1015.0
20260831233107 71 0 0.0 0.0 0.00 0.12 0.12 92 1015.1
20260831231602 72 0 0.0 2.0 0.00 0.12 0.12 92 1015.2
20260831230117 72 0 0.0 3.0 0.04 0.12 0.12 92 1015.2
20260831224608 72 0 0.0 4.0 0.05 0.12 0.12 92 1015.3
20260831223107 71 0 0.0 4.0 0.06 0.12 0.12 92 1015.3
20260831221610 71 0 0.0 3.0 0.08 0.12 0.12 92 1015.2
20260831220109 71 0 1.0 6.0 0.04 0.08 0.08 91 1016.4
20260831214613 72 0 0.0 1.0 0.03 0.11 0.07 90 1016.6
20260831213102 73 0 0.0 1.0 0.04 0.10 0.06 89 1016.7
20260831211603 73 0 0.0 0.0 0.03 0.08 0.04 87 1016.9
20260831210106 74 0 0.0 1.0 0.03 0.08 0.04 85 1016.7
20260831204603 76 0 0.0 4.0 0.03 0.08 0.04 82 1017.1
20260831203108 79 0 0.0 4.0 0.01 0.06 0.02 80 1017.1
20260831201600 80 0 0.0 1.0 0.00 0.05 0.01 79 1017.6
20260831200111 82 0 0.0 1.0 0.00 0.05 0.01 76 1017.1
20260831194616 83 129 0.0 1.0 0.00 0.05 0.01 70 1016.9
20260831193104 84 230 0.0 4.0 0.00 0.05 0.01 69 1017.1
20260831191605 84 48 0.0 2.0 0.00 0.05 0.01 70 1017.0
20260831190116 84 0 0.0 3.0 0.00 0.05 0.01 68 1016.8
20260831184605 84 159 0.0 2.0 0.00 0.05 0.01 71 1016.9
20260831183108 83 0 0.0 4.0 0.00 0.05 0.01 71 1017.3
20260831181605 82 70 0.0 3.0 0.00 0.05 0.01 71 1017.3
20260831180115 81 123 0.0 3.0 0.00 0.05 0.01 78 1017.3
20260831174604 78 0 1.0 3.0 0.00 0.05 0.01 82 1017.5
20260831173104 77 0 0.0 1.0 0.00 0.05 0.01 86 1017.8
20260831171603 75 0 0.0 0.0 0.00 0.05 0.01 90 1017.8
20260831170107 74 0 0.0 1.0 0.01 0.05 0.01 92 1018.1
20260831164606 74 0 0.0 1.0 0.01 0.05 0.01 91 1018.2
20260831163115 74 0 0.0 0.0 0.01 0.05 0.01 90 1018.7
20260831161604 74 0 0.0 0.0 0.01 0.05 0.01 89 1019.1
20260831160123 74 0 0.0 0.0 0.00 0.04 0.00 86 1019.2
20260831154624 75 0 0.0 1.0 0.00 0.04 0.00 84 1019.1
20260831153103 75 0 0.0 4.0 0.00 0.04 0.00 82 1018.9
20260831151608 75 0 0.0 4.0 0.00 0.04 0.00 83 1018.5
20260831150112 74 0 1.0 4.0 0.00 0.04 0.00 86 1018.4
20260831144607 73 123 0.0 3.0 0.00 0.14 0.00 88 1018.3
20260831143112 72 0 0.0 3.0 0.00 0.14 0.00 92 1018.2
20260831141609 72 0 0.0 0.0 0.00 0.14 0.00 93 1018.3
20260831134606 71 0 0.0 0.0 0.00 0.26 0.00 93 1018.4
20260831133105 71 0 0.0 0.0 0.00 0.26 0.00 94 1018.1
20260831131605 71 0 0.0 0.0 0.00 0.26 0.00 94 1017.9
20260831130109 70 0 0.0 0.0 0.00 0.26 0.00 95 1017.9
20260831124604 70 0 0.0 0.0 0.00 0.40 0.00 96 1017.8
20260831123105 69 0 0.0 0.0 0.00 0.40 0.00 96 1017.8
20260831121607 69 0 0.0 0.0 0.00 0.40 0.00 96 1017.8
20260831120127 68 0 0.0 0.0 0.00 0.40 0.00 96 1017.7
20260831114605 68 0 0.0 0.0 0.00 0.40 0.00 96 1017.6
20260831113107 68 0 0.0 0.0 0.00 0.40 0.00 96 1017.7
20260831111615 68 0 0.0 0.0 0.00 0.40 0.00 96 1017.7
20260831110110 68 0 0.0 0.0 0.00 0.40 0.00 96 1017.8
20260831104605 68 0 0.0 0.0 0.00 0.40 0.00 96 1017.7
20260831103108 68 0 0.0 0.0 0.00 0.40 0.00 96 1017.7
20260831101600 67 0 0.0 0.0 0.00 0.40 0.00 96 1017.7
20260831100114 67 0 0.0 0.0 0.00 0.40 0.00 96 1017.7
20260831094606 67 0 0.0 0.0 0.00 0.41 0.00 96 1017.6
20260831093103 67 0 0.0 0.0 0.00 0.41 0.00 96 1017.6
20260831091617 67 0 0.0 0.0 0.00 0.41 0.00 96 1017.5
20260831090109 67 0 0.0 0.0 0.00 0.41 0.00 96 1017.5
20260831084609 67 0 0.0 0.0 0.00 0.43 0.00 96 1017.5
20260831083107 67 0 0.0 0.0 0.00 0.43 0.00 96 1017.5
20260831081610 67 0 0.0 0.0 0.00 0.43 0.00 96 1017.3
20260831080139 67 0 0.0 0.0 0.00 0.43 0.00 96 1017.2
20260831074607 67 0 0.0 0.0 0.00 0.44 0.00 96 1017.2
20260831073118 67 0 0.0 0.0 0.00 0.44 0.00 96 1017.3
20260831071607 67 0 0.0 0.0 0.00 0.44 0.00 95 1017.7
20260831070109 67 0 0.0 0.0 0.00 0.44 0.00 95 1017.9
20260831064607 67 0 0.0 0.0 0.00 0.44 0.00 95 1018.0
20260831063107 67 0 0.0 0.0 0.00 0.44 0.00 95 1018.1
20260831061605 67 0 0.0 0.0 0.00 0.44 0.00 95 1018.2
20260831060109 67 0 0.0 0.0 0.00 0.44 0.00 95 1018.1
20260831054607 67 0 0.0 0.0 0.00 0.44 0.00 95 1018.2
20260831053108 67 0 0.0 0.0 0.00 0.44 0.00 95 1018.3
20260831051602 67 0 0.0 0.0 0.00 0.44 0.00 94 1018.4
20260831050112 68 0 0.0 0.0 0.00 0.44 0.00 94 1018.4
20260831044608 68 0 0.0 0.0 0.00 0.45 0.00 94 1018.2
20260831043105 68 0 0.0 0.0 0.00 0.45 0.00 94 1018.3
20260831041611 68 0 0.0 0.0 0.00 0.45 0.00 94 1018.5